HBLPT LSGG-LFTZ

Flight info

Callsign HBLPT
Flight time 1h 18m
Altitude 18000
Route DEPUL T544 LSE A6 ROMAM T43 ABDIL
Aircraft C414/L-SBDFGRY/S

Departure

Time 2026-05-06 06:40
Airport Geneva International Airport (LSGG)

Arrival

Time 2026-05-06 07:59
Airport La Môle Airport (LFTZ)
Time Latitude Longitude Altitude Speed Heading
2026-05-06 06:22 46.23550 6.09769 1389 ft 0 kts 229°
2026-05-06 06:33 46.23535 6.09766 1387 ft 5 kts 171°
2026-05-06 06:34 46.23511 6.09791 1388 ft 4 kts 115°
2026-05-06 06:34 46.23503 6.09834 1389 ft 6 kts 103°
2026-05-06 06:34 46.23470 6.09893 1388 ft 11 kts 136°
2026-05-06 06:34 46.23430 6.09952 1388 ft 3 kts 131°
2026-05-06 06:35 46.23404 6.09944 1387 ft 6 kts 187°
2026-05-06 06:35 46.23396 6.09965 1388 ft 0 kts 28°
2026-05-06 06:36 46.23422 6.09959 1388 ft 7 kts 322°
2026-05-06 06:36 46.23473 6.09889 1388 ft 12 kts 322°
2026-05-06 06:36 46.23533 6.09935 1389 ft 11 kts 49°
2026-05-06 06:37 46.23593 6.10025 1387 ft 14 kts 46°
2026-05-06 06:37 46.23668 6.10136 1384 ft 16 kts 46°
2026-05-06 06:37 46.23757 6.10266 1378 ft 21 kts 46°
2026-05-06 06:37 46.23865 6.10427 1379 ft 22 kts 45°
2026-05-06 06:38 46.23974 6.10583 1377 ft 21 kts 44°
2026-05-06 06:38 46.24042 6.10688 1379 ft 7 kts 58°
2026-05-06 06:38 46.24020 6.10739 1377 ft 6 kts 136°
2026-05-06 06:38 46.23983 6.10792 1377 ft 11 kts 135°
2026-05-06 06:39 46.23930 6.10869 1378 ft 10 kts 134°
2026-05-06 06:39 46.23876 6.10949 1377 ft 13 kts 135°
2026-05-06 06:39 46.23834 6.10939 1376 ft 0 kts 228°
2026-05-06 06:39 46.23827 6.10927 1375 ft 15 kts 227°
2026-05-06 06:40 46.23608 6.10600 1376 ft 73 kts 224°
2026-05-06 06:40 46.23183 6.09977 1565 ft 92 kts 226°
2026-05-06 06:40 46.22716 6.09278 1858 ft 101 kts 226°
2026-05-06 06:40 46.22282 6.08433 2172 ft 110 kts 237°
2026-05-06 06:41 46.21882 6.07423 2423 ft 124 kts 242°
2026-05-06 06:41 46.21413 6.06284 2620 ft 140 kts 235°
2026-05-06 06:41 46.20831 6.05089 2795 ft 150 kts 234°
2026-05-06 06:41 46.20212 6.03848 3025 ft 153 kts 235°
2026-05-06 06:42 46.19592 6.02594 3288 ft 154 kts 234°
2026-05-06 06:42 46.18960 6.01338 3538 ft 155 kts 234°
2026-05-06 06:42 46.18333 6.00064 3791 ft 156 kts 236°
2026-05-06 06:42 46.17713 5.98790 4069 ft 153 kts 233°
2026-05-06 06:43 46.17086 5.97570 4413 ft 149 kts 233°
2026-05-06 06:43 46.16493 5.96392 4747 ft 146 kts 231°
2026-05-06 06:43 46.15897 5.95231 5057 ft 142 kts 233°
2026-05-06 06:43 46.15329 5.94096 5398 ft 138 kts 231°
2026-05-06 06:44 46.14747 5.92997 5736 ft 137 kts 231°
2026-05-06 06:44 46.14175 5.91905 6075 ft 136 kts 231°
2026-05-06 06:44 46.13621 5.90805 6401 ft 136 kts 233°
2026-05-06 06:44 46.13050 5.89732 6630 ft 132 kts 231°
2026-05-06 06:45 46.12834 5.88510 6873 ft 132 kts 268°
2026-05-06 06:45 46.12471 5.87381 7246 ft 127 kts 218°
2026-05-06 06:45 46.11690 5.86790 7522 ft 131 kts 213°
2026-05-06 06:45 46.11058 5.85815 7784 ft 138 kts 233°
2026-05-06 06:46 46.10519 5.84639 8045 ft 143 kts 233°
2026-05-06 06:46 46.09942 5.83440 8293 ft 147 kts 232°
2026-05-06 06:46 46.09328 5.82248 8549 ft 149 kts 231°
2026-05-06 06:46 46.08704 5.81041 8810 ft 150 kts 231°
2026-05-06 06:47 46.08297 5.80234 8976 ft 150 kts 232°
2026-05-06 06:47 46.07674 5.79025 9237 ft 150 kts 232°
2026-05-06 06:47 46.07048 5.77825 9504 ft 150 kts 231°
2026-05-06 06:47 46.06450 5.76616 9750 ft 146 kts 233°
2026-05-06 06:48 46.05847 5.75438 10004 ft 146 kts 230°
2026-05-06 06:48 46.05187 5.74331 10245 ft 145 kts 217°
2026-05-06 06:48 46.04261 5.73799 10485 ft 145 kts 198°
2026-05-06 06:48 46.03293 5.73334 10690 ft 148 kts 202°
2026-05-06 06:49 46.02318 5.72801 10885 ft 151 kts 202°
2026-05-06 06:49 46.01330 5.72282 11083 ft 152 kts 201°
2026-05-06 06:49 46.00332 5.71767 11302 ft 153 kts 201°
2026-05-06 06:49 45.99328 5.71253 11490 ft 153 kts 201°
2026-05-06 06:50 45.98321 5.70740 11692 ft 154 kts 201°
2026-05-06 06:50 45.97311 5.70227 11899 ft 154 kts 201°
2026-05-06 06:50 45.96312 5.69719 12108 ft 154 kts 201°
2026-05-06 06:50 45.95306 5.69211 12311 ft 153 kts 201°
2026-05-06 06:51 45.94303 5.68702 12526 ft 153 kts 201°
2026-05-06 06:51 45.93301 5.68198 12743 ft 153 kts 201°
2026-05-06 06:51 45.92303 5.67692 12928 ft 151 kts 201°
2026-05-06 06:51 45.91320 5.67195 13136 ft 149 kts 201°
2026-05-06 06:52 45.90351 5.66704 13370 ft 148 kts 201°
2026-05-06 06:52 45.89376 5.66205 13604 ft 150 kts 200°
2026-05-06 06:52 45.88389 5.65712 13800 ft 151 kts 200°
2026-05-06 06:52 45.87399 5.65214 13968 ft 150 kts 200°
2026-05-06 06:53 45.86417 5.64719 14159 ft 151 kts 200°
2026-05-06 06:53 45.85410 5.64209 14358 ft 156 kts 200°
2026-05-06 06:53 45.84373 5.63684 14548 ft 160 kts 200°
2026-05-06 06:53 45.83316 5.63151 14737 ft 162 kts 200°
2026-05-06 06:54 45.82240 5.62609 14953 ft 166 kts 200°
2026-05-06 06:54 45.81146 5.62058 15147 ft 168 kts 200°
2026-05-06 06:54 45.80038 5.61497 15343 ft 170 kts 200°
2026-05-06 06:54 45.78920 5.60932 15557 ft 171 kts 200°
2026-05-06 06:55 45.77793 5.60362 15753 ft 172 kts 200°
2026-05-06 06:55 45.76671 5.59799 15956 ft 174 kts 200°
2026-05-06 06:55 45.75526 5.59224 16163 ft 175 kts 200°
2026-05-06 06:55 45.74377 5.58646 16378 ft 176 kts 200°
2026-05-06 06:56 45.73223 5.58064 16586 ft 177 kts 200°
2026-05-06 06:56 45.72057 5.57478 16801 ft 178 kts 200°
2026-05-06 06:56 45.70884 5.56889 17007 ft 179 kts 199°
2026-05-06 06:56 45.69703 5.56296 17217 ft 179 kts 199°
2026-05-06 06:57 45.68526 5.55705 17432 ft 179 kts 199°
2026-05-06 06:57 45.67348 5.55114 17649 ft 180 kts 199°
2026-05-06 06:57 45.66161 5.54518 17816 ft 183 kts 199°
2026-05-06 06:57 45.64937 5.53905 17840 ft 190 kts 199°
2026-05-06 06:58 45.63701 5.53283 17856 ft 192 kts 200°
2026-05-06 06:58 45.62443 5.52651 17862 ft 192 kts 200°
2026-05-06 06:58 45.61169 5.52012 17864 ft 192 kts 200°
2026-05-06 06:58 45.59925 5.51389 17863 ft 192 kts 200°
2026-05-06 06:59 45.58665 5.50758 17867 ft 192 kts 200°
2026-05-06 06:59 45.57405 5.50128 17871 ft 192 kts 200°
2026-05-06 06:59 45.56141 5.49496 17865 ft 192 kts 200°
2026-05-06 06:59 45.54877 5.48865 17869 ft 192 kts 200°
2026-05-06 07:00 45.53614 5.48235 17870 ft 192 kts 200°
2026-05-06 07:00 45.52355 5.47607 17871 ft 192 kts 200°
2026-05-06 07:00 45.51095 5.46979 17877 ft 192 kts 200°
2026-05-06 07:00 45.49832 5.46350 17877 ft 192 kts 200°
2026-05-06 07:01 45.48568 5.45720 17875 ft 192 kts 200°
2026-05-06 07:01 45.47304 5.45090 17877 ft 193 kts 200°
2026-05-06 07:01 45.46036 5.44459 17879 ft 193 kts 200°
2026-05-06 07:01 45.44783 5.43836 17878 ft 194 kts 200°
2026-05-06 07:02 45.43508 5.43201 17885 ft 195 kts 200°
2026-05-06 07:02 45.42219 5.42562 17889 ft 197 kts 200°
2026-05-06 07:02 45.40920 5.41916 17882 ft 198 kts 200°
2026-05-06 07:02 45.39610 5.41265 17885 ft 200 kts 200°
2026-05-06 07:03 45.38296 5.40613 17880 ft 200 kts 200°
2026-05-06 07:03 45.36979 5.39960 17877 ft 201 kts 200°
2026-05-06 07:03 45.35660 5.39306 17873 ft 201 kts 200°
2026-05-06 07:03 45.34345 5.38654 17876 ft 200 kts 200°
2026-05-06 07:04 45.33035 5.38005 17874 ft 199 kts 200°
2026-05-06 07:04 45.31731 5.37360 17881 ft 198 kts 200°
2026-05-06 07:04 45.30448 5.36726 17874 ft 197 kts 200°
2026-05-06 07:04 45.29152 5.36085 17883 ft 197 kts 200°
2026-05-06 07:05 45.27853 5.35443 17888 ft 198 kts 200°
2026-05-06 07:05 45.26548 5.34797 17886 ft 199 kts 200°
2026-05-06 07:05 45.25233 5.34147 17874 ft 200 kts 200°
2026-05-06 07:05 45.23915 5.33497 17874 ft 201 kts 200°
2026-05-06 07:06 45.22590 5.32843 17882 ft 202 kts 200°
2026-05-06 07:06 45.21260 5.32188 17883 ft 202 kts 200°
2026-05-06 07:06 45.19929 5.31531 17874 ft 203 kts 200°
2026-05-06 07:06 45.18599 5.30876 17863 ft 201 kts 200°
2026-05-06 07:07 45.17279 5.30228 17872 ft 200 kts 200°
2026-05-06 07:07 45.15968 5.29583 17877 ft 200 kts 200°
2026-05-06 07:07 45.14651 5.28935 17875 ft 200 kts 200°
2026-05-06 07:07 45.13336 5.28288 17873 ft 200 kts 200°
2026-05-06 07:08 45.12019 5.27640 17874 ft 200 kts 200°
2026-05-06 07:08 45.10708 5.26997 17875 ft 199 kts 200°
2026-05-06 07:08 45.09420 5.26365 17875 ft 198 kts 200°
2026-05-06 07:08 45.08121 5.25728 17874 ft 198 kts 200°
2026-05-06 07:09 45.06819 5.25090 17879 ft 198 kts 200°
2026-05-06 07:09 45.05521 5.24453 17866 ft 197 kts 200°
2026-05-06 07:09 45.04235 5.23820 17861 ft 194 kts 200°
2026-05-06 07:09 45.02962 5.23196 17888 ft 194 kts 200°
2026-05-06 07:10 45.01887 5.22670 17879 ft 195 kts 200°
2026-05-06 07:10 45.00597 5.22039 17880 ft 196 kts 200°
2026-05-06 07:10 44.99299 5.21406 17901 ft 197 kts 200°
2026-05-06 07:10 44.98003 5.20775 17888 ft 197 kts 200°
2026-05-06 07:11 44.96714 5.20146 17896 ft 196 kts 200°
2026-05-06 07:11 44.95442 5.19525 17897 ft 196 kts 200°
2026-05-06 07:11 44.94134 5.18887 17899 ft 196 kts 200°
2026-05-06 07:11 44.92861 5.18268 17901 ft 196 kts 200°
2026-05-06 07:12 44.91575 5.17642 17895 ft 195 kts 200°
2026-05-06 07:12 44.90293 5.17017 17905 ft 195 kts 200°
2026-05-06 07:12 44.89012 5.16396 17908 ft 195 kts 200°
2026-05-06 07:12 44.87724 5.15769 17900 ft 196 kts 201°
2026-05-06 07:13 44.86407 5.15283 17895 ft 198 kts 182°
2026-05-06 07:13 44.85076 5.15816 17931 ft 200 kts 164°
2026-05-06 07:13 44.83769 5.16502 17948 ft 201 kts 164°
2026-05-06 07:13 44.82444 5.17164 17925 ft 203 kts 165°
2026-05-06 07:14 44.81105 5.17814 17914 ft 204 kts 165°
2026-05-06 07:14 44.79758 5.18458 17896 ft 205 kts 165°
2026-05-06 07:14 44.78408 5.19097 17898 ft 204 kts 166°
2026-05-06 07:14 44.77042 5.19615 17899 ft 203 kts 171°
2026-05-06 07:15 44.75654 5.19982 17892 ft 203 kts 174°
2026-05-06 07:15 44.74260 5.20251 17889 ft 202 kts 176°
2026-05-06 07:15 44.72867 5.20464 17896 ft 201 kts 178°
2026-05-06 07:15 44.71478 5.20645 17897 ft 201 kts 178°
2026-05-06 07:16 44.70098 5.20808 17895 ft 202 kts 179°
2026-05-06 07:16 44.68698 5.20965 17882 ft 202 kts 178°
2026-05-06 07:16 44.67302 5.21120 17887 ft 201 kts 179°
2026-05-06 07:16 44.65911 5.21274 17887 ft 200 kts 179°
2026-05-06 07:17 44.64525 5.21426 17889 ft 199 kts 179°
2026-05-06 07:17 44.63143 5.21578 17892 ft 200 kts 179°
2026-05-06 07:17 44.61756 5.21730 17884 ft 199 kts 179°
2026-05-06 07:17 44.60380 5.21882 17883 ft 198 kts 179°
2026-05-06 07:18 44.59003 5.22035 17899 ft 199 kts 179°
2026-05-06 07:18 44.57620 5.22187 17893 ft 200 kts 179°
2026-05-06 07:18 44.56230 5.22340 17891 ft 201 kts 179°
2026-05-06 07:18 44.54834 5.22492 17890 ft 201 kts 179°
2026-05-06 07:19 44.53458 5.22644 17885 ft 201 kts 179°
2026-05-06 07:19 44.52066 5.22798 17884 ft 201 kts 179°
2026-05-06 07:19 44.50676 5.22951 17882 ft 200 kts 179°
2026-05-06 07:19 44.49291 5.23106 17891 ft 199 kts 180°
2026-05-06 07:20 44.47904 5.23261 17895 ft 200 kts 180°
2026-05-06 07:20 44.46514 5.23433 17891 ft 202 kts 177°
2026-05-06 07:20 44.45130 5.23806 17889 ft 204 kts 170°
2026-05-06 07:20 44.43758 5.24308 17891 ft 204 kts 171°
2026-05-06 07:21 44.42379 5.24791 17888 ft 204 kts 171°
2026-05-06 07:21 44.41006 5.25266 17890 ft 203 kts 171°
2026-05-06 07:21 44.39636 5.25740 17897 ft 203 kts 171°
2026-05-06 07:21 44.38263 5.26214 17893 ft 203 kts 171°
2026-05-06 07:22 44.36893 5.26690 17892 ft 203 kts 171°
2026-05-06 07:22 44.35534 5.27161 17893 ft 204 kts 171°
2026-05-06 07:22 44.34162 5.27638 17888 ft 203 kts 171°
2026-05-06 07:22 44.32792 5.28115 17894 ft 202 kts 171°
2026-05-06 07:23 44.31424 5.28592 17894 ft 202 kts 171°
2026-05-06 07:23 44.30062 5.29066 17899 ft 202 kts 171°
2026-05-06 07:23 44.28695 5.29540 17901 ft 203 kts 171°
2026-05-06 07:23 44.27327 5.30015 17897 ft 203 kts 171°
2026-05-06 07:24 44.25959 5.30490 17894 ft 202 kts 171°
2026-05-06 07:24 44.24588 5.30966 17901 ft 203 kts 171°
2026-05-06 07:24 44.23209 5.31444 17898 ft 204 kts 171°
2026-05-06 07:24 44.21846 5.31915 17898 ft 205 kts 171°
2026-05-06 07:25 44.20463 5.32393 17896 ft 205 kts 171°
2026-05-06 07:25 44.19079 5.32872 17895 ft 204 kts 172°
2026-05-06 07:25 44.17705 5.33350 17882 ft 203 kts 172°
2026-05-06 07:25 44.16337 5.33828 17884 ft 200 kts 172°
2026-05-06 07:26 44.14990 5.34294 17893 ft 199 kts 172°
2026-05-06 07:26 44.13646 5.34758 17900 ft 198 kts 172°
2026-05-06 07:26 44.12305 5.35222 17903 ft 199 kts 172°
2026-05-06 07:26 44.10965 5.35685 17900 ft 199 kts 172°
2026-05-06 07:27 44.09630 5.36147 17893 ft 198 kts 173°
2026-05-06 07:27 44.08290 5.36611 17902 ft 199 kts 172°
2026-05-06 07:27 44.06967 5.37068 17898 ft 199 kts 173°
2026-05-06 07:27 44.05621 5.37533 17896 ft 199 kts 173°
2026-05-06 07:28 44.04274 5.37999 17897 ft 199 kts 173°
2026-05-06 07:28 44.02926 5.38465 17896 ft 200 kts 173°
2026-05-06 07:28 44.00228 5.39397 17898 ft 200 kts 173°
2026-05-06 07:29 43.98878 5.39862 17903 ft 200 kts 173°
2026-05-06 07:29 43.97541 5.40434 17903 ft 204 kts 165°
2026-05-06 07:29 43.96259 5.41316 17899 ft 207 kts 158°
2026-05-06 07:29 43.95016 5.42273 17902 ft 207 kts 159°
2026-05-06 07:30 43.93750 5.43221 17903 ft 207 kts 159°
2026-05-06 07:30 43.92477 5.44175 17901 ft 207 kts 159°
2026-05-06 07:30 43.91212 5.45126 17902 ft 207 kts 159°
2026-05-06 07:30 43.89949 5.46078 17901 ft 206 kts 159°
2026-05-06 07:31 43.88691 5.47027 17901 ft 206 kts 159°
2026-05-06 07:31 43.87427 5.47978 17906 ft 207 kts 159°
2026-05-06 07:31 43.86158 5.48934 17902 ft 208 kts 159°
2026-05-06 07:31 43.84884 5.49892 17902 ft 208 kts 159°
2026-05-06 07:32 43.83614 5.50847 17900 ft 208 kts 159°
2026-05-06 07:32 43.82351 5.51799 17900 ft 207 kts 159°
2026-05-06 07:32 43.81103 5.52738 17910 ft 207 kts 159°
2026-05-06 07:32 43.79836 5.53688 17907 ft 207 kts 159°
2026-05-06 07:33 43.78570 5.54640 17887 ft 208 kts 159°
2026-05-06 07:33 43.77258 5.55617 17578 ft 220 kts 159°
2026-05-06 07:33 43.76350 5.56295 17359 ft 226 kts 158°
2026-05-06 07:33 43.75062 5.57646 17035 ft 239 kts 140°
2026-05-06 07:34 43.74015 5.59482 16723 ft 246 kts 133°
2026-05-06 07:34 43.72967 5.61359 16408 ft 247 kts 134°
2026-05-06 07:34 43.71905 5.63238 16093 ft 248 kts 134°
2026-05-06 07:34 43.70845 5.65117 15776 ft 248 kts 133°
2026-05-06 07:35 43.69785 5.66993 15468 ft 247 kts 133°
2026-05-06 07:35 43.68730 5.68862 15161 ft 247 kts 133°
2026-05-06 07:35 43.67670 5.70740 14862 ft 247 kts 133°
2026-05-06 07:35 43.66616 5.72604 14554 ft 246 kts 134°
2026-05-06 07:36 43.65561 5.74461 14261 ft 245 kts 133°
2026-05-06 07:36 43.64510 5.76307 13976 ft 244 kts 133°
2026-05-06 07:36 43.63488 5.78105 13686 ft 239 kts 133°
2026-05-06 07:36 43.62472 5.79892 13352 ft 235 kts 133°
2026-05-06 07:37 43.61465 5.81660 12999 ft 234 kts 133°
2026-05-06 07:37 43.60459 5.83420 12627 ft 233 kts 133°
2026-05-06 07:37 43.59459 5.85172 12259 ft 232 kts 133°
2026-05-06 07:37 43.58464 5.86913 11995 ft 227 kts 133°
2026-05-06 07:38 43.57528 5.88566 12060 ft 213 kts 133°
2026-05-06 07:38 43.56631 5.90149 12079 ft 205 kts 134°
2026-05-06 07:38 43.55760 5.91681 12090 ft 201 kts 134°
2026-05-06 07:38 43.54904 5.93182 12097 ft 199 kts 134°
2026-05-06 07:39 43.54040 5.94691 12058 ft 204 kts 134°
2026-05-06 07:39 43.53132 5.96267 11763 ft 215 kts 134°
2026-05-06 07:39 43.52203 5.97886 11493 ft 221 kts 133°
2026-05-06 07:39 43.51244 5.99568 11213 ft 224 kts 133°
2026-05-06 07:40 43.50276 6.01261 10942 ft 226 kts 133°
2026-05-06 07:40 43.49301 6.02966 10668 ft 226 kts 133°
2026-05-06 07:40 43.48326 6.04673 10403 ft 227 kts 133°
2026-05-06 07:40 43.47351 6.06377 10157 ft 225 kts 133°
2026-05-06 07:41 43.46388 6.08062 9934 ft 223 kts 133°
2026-05-06 07:41 43.45437 6.09728 9861 ft 218 kts 134°
2026-05-06 07:41 43.44530 6.11375 9860 ft 215 kts 130°
2026-05-06 07:41 43.43720 6.13103 9863 ft 215 kts 126°
2026-05-06 07:42 43.42971 6.14842 9865 ft 213 kts 126°
2026-05-06 07:42 43.42211 6.16588 9866 ft 212 kts 126°
2026-05-06 07:42 43.41451 6.18328 9864 ft 212 kts 126°
2026-05-06 07:42 43.40694 6.20066 9863 ft 211 kts 126°
2026-05-06 07:43 43.39921 6.21829 9627 ft 218 kts 126°
2026-05-06 07:43 43.39134 6.23626 9367 ft 221 kts 126°
2026-05-06 07:43 43.38342 6.25441 9098 ft 222 kts 126°
2026-05-06 07:43 43.37536 6.27245 8837 ft 221 kts 127°
2026-05-06 07:44 43.36696 6.29022 8571 ft 221 kts 128°
2026-05-06 07:44 43.35852 6.30794 8318 ft 222 kts 128°
2026-05-06 07:44 43.35008 6.32570 8067 ft 222 kts 127°
2026-05-06 07:44 43.34179 6.34324 7812 ft 222 kts 127°
2026-05-06 07:45 43.33341 6.36100 7561 ft 222 kts 127°
2026-05-06 07:45 43.32502 6.37877 7313 ft 222 kts 127°
2026-05-06 07:45 43.31665 6.39652 7058 ft 221 kts 126°
2026-05-06 07:45 43.30825 6.41429 6802 ft 222 kts 126°
2026-05-06 07:46 43.29972 6.43238 6523 ft 223 kts 126°
2026-05-06 07:46 43.29127 6.45029 6249 ft 224 kts 126°
2026-05-06 07:46 43.28291 6.46797 5979 ft 224 kts 127°
2026-05-06 07:46 43.27445 6.48585 5688 ft 222 kts 126°
2026-05-06 07:47 43.26613 6.50345 5402 ft 218 kts 126°
2026-05-06 07:47 43.25792 6.52083 5119 ft 215 kts 126°
2026-05-06 07:47 43.24977 6.53799 4847 ft 213 kts 126°
2026-05-06 07:47 43.24172 6.55497 4560 ft 212 kts 126°
2026-05-06 07:48 43.23366 6.57194 4257 ft 211 kts 126°
2026-05-06 07:48 43.22565 6.58882 3978 ft 211 kts 126°
2026-05-06 07:48 43.21734 6.60496 3909 ft 204 kts 133°
2026-05-06 07:48 43.20791 6.61901 3866 ft 197 kts 136°
2026-05-06 07:49 43.19892 6.63273 3879 ft 195 kts 134°
2026-05-06 07:49 43.18997 6.64656 3885 ft 193 kts 135°
2026-05-06 07:49 43.18102 6.66029 3879 ft 193 kts 135°
2026-05-06 07:49 43.17213 6.67397 3873 ft 192 kts 132°
2026-05-06 07:50 43.16600 6.69015 3867 ft 194 kts 99°
2026-05-06 07:50 43.16931 6.70745 3877 ft 190 kts 47°
2026-05-06 07:50 43.18037 6.71562 3886 ft 180 kts
2026-05-06 07:50 43.19262 6.71504 3882 ft 174 kts 342°
2026-05-06 07:51 43.20300 6.70739 3882 ft 168 kts 313°
2026-05-06 07:51 43.20871 6.69380 3880 ft 165 kts 283°
2026-05-06 07:51 43.21057 6.67829 3880 ft 165 kts 279°
2026-05-06 07:51 43.21240 6.66283 3879 ft 163 kts 278°
2026-05-06 07:52 43.21417 6.64767 3946 ft 159 kts 278°
2026-05-06 07:52 43.21589 6.63278 3977 ft 158 kts 278°
2026-05-06 07:52 43.21759 6.61806 3983 ft 159 kts 278°
2026-05-06 07:52 43.21890 6.60298 3873 ft 162 kts 272°
2026-05-06 07:53 43.21834 6.58750 3768 ft 164 kts 263°
2026-05-06 07:53 43.21704 6.57195 3637 ft 163 kts 265°
2026-05-06 07:53 43.21594 6.55660 3528 ft 159 kts 265°
2026-05-06 07:53 43.21482 6.54166 3396 ft 156 kts 264°
2026-05-06 07:54 43.21374 6.52700 3265 ft 154 kts 267°
2026-05-06 07:54 43.21790 6.51405 3063 ft 162 kts 322°
2026-05-06 07:54 43.22916 6.51232 2814 ft 176 kts 15°
2026-05-06 07:54 43.24039 6.51877 2662 ft 174 kts 20°
2026-05-06 07:55 43.25101 6.52564 2588 ft 167 kts 22°
2026-05-06 07:55 43.26130 6.53248 2543 ft 159 kts 22°
2026-05-06 07:55 43.27024 6.54133 2342 ft 167 kts 57°
2026-05-06 07:55 43.27120 6.55682 2135 ft 170 kts 114°
2026-05-06 07:56 43.26274 6.56703 1911 ft 161 kts 172°
2026-05-06 07:56 43.25246 6.56403 1723 ft 150 kts 218°
2026-05-06 07:56 43.24439 6.55534 1629 ft 145 kts 224°
2026-05-06 07:56 43.23694 6.54623 1501 ft 144 kts 226°
2026-05-06 07:57 43.22999 6.53666 1445 ft 136 kts 231°
2026-05-06 07:57 43.22429 6.52712 1262 ft 122 kts 238°
2026-05-06 07:57 43.21987 6.51777 978 ft 112 kts 240°
2026-05-06 07:57 43.21621 6.50910 665 ft 101 kts 243°
2026-05-06 07:58 43.21279 6.50105 489 ft 96 kts 243°
2026-05-06 07:58 43.20985 6.49345 283 ft 86 kts 247°
2026-05-06 07:58 43.20718 6.48662 97 ft 77 kts 246°
2026-05-06 07:58 43.20510 6.48098 71 ft 55 kts 243°
2026-05-06 07:59 43.20391 6.47800 73 ft 7 kts 243°
2026-05-06 07:59 43.20415 6.47724 70 ft 10 kts 249°
2026-05-06 07:59 43.20376 6.47613 72 ft 14 kts 244°
2026-05-06 07:59 43.20359 6.47512 72 ft 8 kts 29°
2026-05-06 08:00 43.20363 6.47521 70 ft 0 kts 76°